Regional Weather Roundup
Issued by NWS

Home | Current Version | Previous Version | Text Only | Print | Product List | Glossary On
Versions: 1 2 3 4 5 6 7 8 9 10 11 12 13 14 15 16 17 18 19 20 21 22 23 24 25 26 27 28 29 30 31 32 33 34 35 36 37 38 39 40 41 42 43 44 45 46 47 48 49 50
000
ASUS43 KFSD 292310
RWRSD

WEATHER ROUNDUP FOR SOUTH DAKOTA
NATIONAL WEATHER SERVICE SIOUX FALLS SD
600 PM CDT TUE JUL 29 2014

NOTE: "FAIR" INDICATES FEW OR NO CLOUDS BELOW 12,000 FEET WITH NO
SIGNIFICANT WEATHER AND/OR OBSTRUCTIONS TO VISIBILITY.


SDZ001>005-009-010-012>017-300000-
NORTHWEST AND NORTH CENTRAL SOUTH DAKOTA

CITY           SKY/WX    TMP DP  RH WIND       PRES   REMARKS
BUFFALO          N/A     83  49  30 SE7       30.12F
FAITH            N/A     79  50  36 SE3       30.17F
MOBRIDGE       SUNNY     81  53  37 N5        30.12F
$$

SDZ012>016-024>037-041>051-057-063-072>074-300000-
SOUTHWEST AND SOUTH CENTRAL SOUTH DAKOTA

CITY           SKY/WX    TMP DP  RH WIND       PRES   REMARKS
RAPID CTY ARPT PTSUNNY   71  54  54 S7        30.22F
PIERRE         SUNNY     82  50  32 N10       30.13F
CUSTER         CLOUDY    64  51  62 CALM      30.32F
ELLSWORTH AFB  PTSUNNY   73  55  52 S10       30.21F
PHILIP         MOSUNNY   84  48  28 VRB6      30.15F
PINE RIDGE     CLOUDY    70  55  59 E8        30.21F
WINNER         FAIR      82  47  29 NE7       30.16F
$$

SDZ004>011-016>023-039-040-300000-
NORTHEAST SOUTH DAKOTA

CITY           SKY/WX    TMP DP  RH WIND       PRES   REMARKS
ABERDEEN       SUNNY     77  52  41 NE7       30.14F
WATERTOWN      SUNNY     73  51  46 NW8       30.15F
SISSETON         N/A     77  54  44 VRB7      30.11F
$$

SDZ017-020-022-023-036>040-048>070-300000-
SOUTHEAST SOUTH DAKOTA

CITY           SKY/WX    TMP DP  RH WIND       PRES   REMARKS
SIOUX FALLS    MOSUNNY   75  53  46 N7        30.14F
HURON          SUNNY     78  52  40 N7        30.13F
CHAMBERLAIN    MOSUNNY   78  51  37 CALM      30.14F
MITCHELL       PTSUNNY   77  54  44 N8        30.14F
YANKTON          N/A    N/A N/A N/A MISG        N/A
$$

ABBREVIATIONS USED IN REMARKS
   TC - TEMPERATURE IN CELSIUS
  WCI - WIND CHILL INDEX
   HX - HEAT INDEX
  VSB - VISIBILITY




USA.gov is the U.S. government's official web portal to all federal, state and local government web resources and services.